Location: Cambridge (historical)
(38.6883°N, 119.0140°W)
Time: 00:27:31
(UTC+00:00)

VELOX 1 - Pass Details

Date: 29 September 2021
Orbit: 626 x 642 km, 98.3° (Epoch: 17 October)

Event Time Altitude Azimuth Distance (km) Brightness Sun altitude
Exits shadow 10:42:20 16° 30° (NNE) 1,668 ? -36.1°
Drops below altitude 10° 10:43:34 10° 17° (NNE) 2,012 ? -35.9°
Sets 10:46:08 0° 3° (N) 2,922 ? -35.5°
